TimeEDT,TemperatureF,Dew PointF,Humidity,Sea Level PressureIn,VisibilityMPH,Wind Direction,Wind SpeedMPH,Gust SpeedMPH,PrecipitationIn,Events,Conditions,WindDirDegrees,DateUTC
12:54 AM,66.0,57.0,73,29.77,10.0,North,-9999.0,-,N/A,,Clear,0,2013-06-13 04:54:00
1:54 AM,66.9,55.9,68,29.75,10.0,North,-9999.0,-,N/A,,Scattered Clouds,0,2013-06-13 05:54:00
2:54 AM,64.0,60.1,87,29.74,10.0,North,-9999.0,-,0.05,Rain,Light Rain,0,2013-06-13 06:54:00
3:54 AM,64.0,59.0,84,29.72,10.0,North,-9999.0,-,0.00,,Overcast,0,2013-06-13 07:54:00
4:43 AM,64.4,57.2,77,29.73,10.0,North,-9999.0,-,0.00,Thunderstorm,Thunderstorm,0,2013-06-13 08:43:00
4:52 AM,62.6,59.0,88,29.71,1.8,North,-9999.0,-,0.14,Rain-Thunderstorm,Heavy Thunderstorms and Rain,0,2013-06-13 08:52:00
4:54 AM,62.1,59.0,90,29.69,1.5,North,-9999.0,-,0.19,Rain-Thunderstorm,Heavy Thunderstorms and Rain,0,2013-06-13 08:54:00
5:01 AM,62.6,59.0,88,29.70,2.5,North,-9999.0,-,0.06,Rain-Thunderstorm,Heavy Thunderstorms and Rain,0,2013-06-13 09:01:00
5:08 AM,62.6,59.0,88,29.70,3.0,North,-9999.0,-,0.10,Rain-Thunderstorm,Heavy Thunderstorms and Rain,0,2013-06-13 09:08:00
5:27 AM,62.6,59.0,88,29.69,10.0,North,-9999.0,-,0.13,Thunderstorm,Overcast,0,2013-06-13 09:27:00
5:54 AM,63.0,59.0,87,29.67,10.0,North,-9999.0,-,0.14,Thunderstorm,Thunderstorm,0,2013-06-13 09:54:00
6:17 AM,62.6,60.8,94,29.67,10.0,North,-9999.0,-,N/A,,Overcast,0,2013-06-13 10:17:00
6:54 AM,63.0,59.0,87,29.63,8.0,North,-9999.0,-,0.03,Rain,Rain,0,2013-06-13 10:54:00
7:01 AM,62.6,59.0,88,29.66,9.0,North,-9999.0,-,0.01,Rain-Thunderstorm,Rain,0,2013-06-13 11:01:00
7:27 AM,-9999,-9999,N/A,29.66,4.0,East,6.9,-,0.00,Rain-Thunderstorm,Thunderstorms and Rain,90,2013-06-13 11:27:00
7:39 AM,60.8,60.8,100,29.66,1.0,East,5.8,-,0.34,Rain,Heavy Rain,80,2013-06-13 11:39:00
7:54 AM,61.0,60.1,97,29.63,1.2,ENE,10.4,-,0.66,Rain,Heavy Rain,60,2013-06-13 11:54:00
8:00 AM,60.8,59.0,94,29.62,2.0,ENE,10.4,-,0.04,Rain,Heavy Rain,60,2013-06-13 12:00:00
8:05 AM,62.6,59.0,88,29.62,3.0,ENE,11.5,-,0.05,Rain,Rain,70,2013-06-13 12:05:00
8:54 AM,62.1,60.1,93,29.55,10.0,ENE,12.7,-,0.06,,Overcast,70,2013-06-13 12:54:00
9:02 AM,62.6,60.8,94,29.56,10.0,East,11.5,-,N/A,,Overcast,80,2013-06-13 13:02:00
9:47 AM,66.2,60.8,83,29.55,10.0,Variable,4.6,18.4,N/A,,Overcast,0,2013-06-13 13:47:00
9:54 AM,66.0,61.0,84,29.54,10.0,SSE,9.2,17.3,N/A,,Overcast,150,2013-06-13 13:54:00
10:13 AM,66.2,60.8,83,29.54,7.0,SSE,18.4,24.2,N/A,,Overcast,160,2013-06-13 14:13:00
10:54 AM,68.0,62.1,81,29.51,7.0,South,15.0,21.9,N/A,,Overcast,170,2013-06-13 14:54:00
11:54 AM,69.1,63.0,81,29.48,10.0,SSE,13.8,24.2,0.00,,Overcast,160,2013-06-13 15:54:00
12:14 PM,69.8,62.6,78,29.47,10.0,SSE,15.0,25.3,N/A,,Overcast,160,2013-06-13 16:14:00
12:54 PM,70.0,64.0,81,29.44,10.0,SSE,6.9,-,0.02,,Overcast,150,2013-06-13 16:54:00
1:54 PM,71.1,64.0,78,29.43,10.0,WSW,15.0,21.9,0.02,,Overcast,240,2013-06-13 17:54:00
2:29 PM,73.4,64.4,73,29.44,10.0,WSW,10.4,-,N/A,,Overcast,250,2013-06-13 18:29:00
2:51 PM,73.4,64.4,73,29.43,10.0,West,10.4,21.9,N/A,,Overcast,260,2013-06-13 18:51:00
2:54 PM,73.9,64.0,71,29.42,10.0,West,11.5,21.9,N/A,,Overcast,270,2013-06-13 18:54:00
3:54 PM,72.0,63.0,73,29.42,10.0,WSW,12.7,19.6,N/A,,Overcast,250,2013-06-13 19:54:00
4:04 PM,71.6,62.6,73,29.43,10.0,West,12.7,-,N/A,,Overcast,260,2013-06-13 20:04:00
4:54 PM,72.0,62.1,71,29.42,10.0,West,17.3,26.5,N/A,,Overcast,260,2013-06-13 20:54:00
5:38 PM,66.2,62.6,88,29.43,4.0,West,12.7,21.9,0.00,Rain,Light Rain,260,2013-06-13 21:38:00
5:54 PM,66.9,63.0,87,29.44,6.0,West,12.7,-,0.01,Rain,Rain,270,2013-06-13 21:54:00
6:00 PM,66.2,62.6,88,29.45,4.0,NNW,9.2,-,0.01,Rain,Rain,340,2013-06-13 22:00:00
6:24 PM,66.2,62.6,88,29.45,10.0,West,10.4,23.0,0.03,Rain,Light Rain,260,2013-06-13 22:24:00
6:54 PM,66.0,61.0,84,29.48,5.0,North,10.4,-,0.06,Rain,Light Rain,360,2013-06-13 22:54:00
7:54 PM,63.0,57.9,84,29.53,6.0,NNW,4.6,-,0.03,Rain,Light Rain,330,2013-06-13 23:54:00
8:04 PM,62.6,57.2,82,29.54,6.0,NW,10.4,-,0.00,Rain,Light Rain,320,2013-06-14 00:04:00
8:47 PM,60.8,55.4,82,29.57,10.0,NW,9.2,-,0.01,Rain,Light Rain,320,2013-06-14 00:47:00
8:54 PM,61.0,55.9,83,29.57,10.0,NW,8.1,-,0.01,Rain,Light Rain,320,2013-06-14 00:54:00
9:54 PM,61.0,55.0,81,29.62,10.0,NNW,4.6,-,0.00,,Overcast,330,2013-06-14 01:54:00
10:08 PM,60.8,53.6,77,29.62,10.0,NNW,8.1,-,N/A,,Overcast,340,2013-06-14 02:08:00
10:54 PM,60.1,54.0,80,29.63,10.0,NNW,9.2,-,N/A,,Overcast,340,2013-06-14 02:54:00
11:54 PM,59.0,53.1,81,29.65,10.0,NNW,5.8,-,N/A,,Overcast,340,2013-06-14 03:54:00